This is the latest recevied weather packets stored in our database for station/object W1RCY. If no packets are shown the sender has not sent any weather packets the latest 10 day(s).
| Time | Temp. | Humidity | Pressure | Rain* | Wind** | Luminosity | Snow |
|---|---|---|---|---|---|---|---|
| 1777159325 | 8.33° C | 56% | 1015.4 hPa | 0 mm | - | 6 W/m² | - |
| 1777159022 | 8.33° C | 55% | 1015.3 hPa | 0 mm | - | 9 W/m² | - |
| 1777158716 | 8.33° C | 54% | 1015 hPa | 0 mm | - | 12 W/m² | - |
| 1777158412 | 8.89° C | 54% | 1014.9 hPa | 0 mm | - | 15 W/m² | - |
| 1777158108 | 8.89° C | 54% | 1015.1 hPa | 0 mm | - | 18 W/m² | - |
| 1777157803 | 8.89° C | 53% | 1015.1 hPa | 0 mm | - | 23 W/m² | - |
| 1777157499 | 8.89° C | 52% | 1015.2 hPa | 0 mm | - | 29 W/m² | - |
| 1777157196 | 9.44° C | 52% | 1014.9 hPa | 0 mm | - | 35 W/m² | - |
| 1777156895 | 9.44° C | 51% | 1014.9 hPa | 0 mm | - | 43 W/m² | - |
| 1777156591 | 9.44° C | 51% | 1014.9 hPa | 0 mm | - | 51 W/m² | - |
| 1777156287 | 10° C | 50% | 1015.1 hPa | 0 mm | - | 58 W/m² | - |
| 1777155984 | 10° C | 51% | 1014.9 hPa | 0 mm | - | 66 W/m² | - |
| 1777155680 | 10° C | 50% | 1014.9 hPa | 0 mm | - | 66 W/m² | - |
| 1777155370 | 10° C | 50% | 1014.8 hPa | 0 mm | - | 64 W/m² | - |
| 1777155068 | 10° C | 50% | 1014.9 hPa | 0 mm | - | 72 W/m² | - |
| 1777154765 | 10.56° C | 49% | 1015 hPa | 0 mm | - | 89 W/m² | - |
| 1777154461 | 10.56° C | 48% | 1015 hPa | 0 mm | - | 96 W/m² | - |
| 1777154156 | 11.11° C | 48% | 1014.9 hPa | 0 mm | - | 100 W/m² | - |
| 1777153853 | 10.56° C | 48% | 1014.9 hPa | 0 mm | - | 132 W/m² | - |
| 1777153550 | 11.11° C | 48% | 1014.6 hPa | 0 mm | - | 105 W/m² | - |
| 1777153245 | 11.67° C | 48% | 1014.6 hPa | 0 mm | - | 130 W/m² | - |
| 1777152942 | 11.67° C | 47% | 1014.8 hPa | 0 mm | - | 156 W/m² | - |
| 1777152639 | 11.11° C | 47% | 1014.8 hPa | 0 mm | - | 129 W/m² | - |
| 1777152336 | 10.56° C | 48% | 1014.8 hPa | 0 mm | - | 128 W/m² | - |
| 1777152030 | 11.11° C | 47% | 1014.9 hPa | 0 mm | - | 170 W/m² | - |
* Rain latest hour (hover to see other rain measurements)
** Current wind speed in m/s (hover to see current wind gust speed)